GW6920 Weather Reports


time (UTC)temp
C
wind
direction
speed
KPH
gust
KPH
rain 1hr
cm
rain 24hr
cm
rain mn
cm
humidity
%
barometer
mb
20260505100355 15 287 0.0 3.2 0.00 0.00 0.00 55 1011.4
20260505095851 15 304 1.6 3.2 0.00 0.00 0.00 55 1011.3
20260505095349 15 320 0.0 3.2 0.00 0.00 0.00 56 1011.3
20260505094845 15 258 1.6 3.2 0.00 0.00 0.00 56 1011.2
20260505094342 15 292 1.6 1.6 0.00 0.00 0.00 56 1011.2
20260505093837 15 242 1.6 3.2 0.00 0.00 0.00 56 1011.1
20260505093335 15 111 0.0 1.6 0.00 0.00 0.00 56 1011.1
20260505092832 15 152 0.0 1.6 0.00 0.00 0.00 57 1011.4
20260505092330 15 296 0.0 3.2 0.00 0.00 0.00 56 1011.2
20260505091827 15 350 0.0 1.6 0.00 0.00 0.00 57 1010.9
20260505091325 15 263 1.6 3.2 0.00 0.00 0.00 56 1011.0
20260505090823 15 229 1.6 4.8 0.00 0.00 0.00 57 1011.0
20260505090321 15 249 0.0 0.0 0.00 0.00 0.00 58 1010.9
20260505085818 15 337 0.0 1.6 0.00 0.00 0.00 58 1011.0
20260505085316 15 244 0.0 1.6 0.00 0.00 0.00 58 1010.9
20260505084813 15 285 0.0 1.6 0.00 0.00 0.00 58 1011.1
20260505084312 15 262 0.0 0.0 0.00 0.00 0.00 59 1011.2
20260505083808 15 291 0.0 1.6 0.00 0.00 0.00 60 1011.2
20260505083306 15 235 1.6 3.2 0.00 0.00 0.00 60 1011.0
20260505082802 15 263 0.0 1.6 0.00 0.00 0.00 60 1011.1
20260505082259 15 1 0.0 1.6 0.00 0.00 0.00 60 1011.0
20260505081755 15 232 3.2 4.8 0.00 0.00 0.00 60 1011.1
20260505081252 15 227 0.0 1.6 0.00 0.00 0.00 61 1010.9
20260505080749 15 224 0.0 1.6 0.00 0.00 0.00 61 1011.1
20260505080244 15 245 0.0 1.6 0.00 0.00 0.00 61 1010.8
20260505075740 15 195 1.6 3.2 0.00 0.00 0.00 61 1010.7
20260505075237 15 332 0.0 0.0 0.00 0.00 0.00 61 1010.8
20260505074735 15 333 0.0 1.6 0.00 0.00 0.00 60 1010.9
20260505074232 15 284 0.0 0.0 0.00 0.00 0.00 60 1010.9
20260505073729 15 273 0.0 1.6 0.00 0.00 0.00 59 1010.7
20260505073227 15 223 0.0 1.6 0.00 0.00 0.00 60 1010.9
20260505072723 15 247 0.0 3.2 0.00 0.00 0.00 61 1010.7
20260505072220 15 266 1.6 3.2 0.00 0.00 0.00 62 1010.7
20260505071715 15 254 0.0 0.0 0.00 0.00 0.00 62 1010.6
20260505071213 15 254 0.0 0.0 0.00 0.00 0.00 61 1010.7
20260505070710 15 254 0.0 1.6 0.00 0.00 0.00 61 1010.8
20260505070206 15 243 0.0 1.6 0.00 0.00 0.00 61 1010.6
20260505065702 15 271 1.6 1.6 0.00 0.00 0.00 61 1010.8
20260505065159 15 270 0.0 0.0 0.00 0.00 0.00 61 1010.7
20260505064656 15 270 0.0 0.0 0.00 0.00 0.00 61 1010.8
20260505064154 15 270 0.0 0.0 0.00 0.00 0.00 62 1010.7
20260505063651 14 271 0.0 0.0 0.00 0.00 0.00 63 1010.6
20260505063147 14 268 0.0 1.6 0.00 0.00 0.00 64 1010.6
20260505062643 13 267 0.0 0.0 0.00 0.00 0.00 65 1010.6
20260505062141 13 267 0.0 0.0 0.00 0.00 0.00 66 1010.7
20260505061638 13 267 0.0 0.0 0.00 0.00 0.00 67 1010.7
20260505061136 13 267 0.0 1.6 0.00 0.00 0.00 69 1010.8
20260505060633 13 267 0.0 0.0 0.00 0.00 0.00 69 1010.4
20260505060130 13 267 0.0 0.0 0.00 0.00 0.00 68 1010.6
20260505055625 13 267 0.0 0.0 0.00 0.00 0.00 68 1010.5
20260505055122 13 267 0.0 1.6 0.00 0.00 0.00 67 1010.8
20260505054620 14 267 0.0 0.0 0.00 0.00 0.00 66 1010.7
20260505054118 13 267 0.0 1.6 0.00 0.00 0.00 66 1010.6
20260505053614 14 267 0.0 0.0 0.00 0.00 0.00 66 1010.7
20260505053111 14 267 0.0 0.0 0.00 0.00 0.00 65 1010.7
20260505052608 14 267 0.0 0.0 0.00 0.00 0.00 65 1010.9
20260505052106 14 267 0.0 0.0 0.00 0.00 0.00 64 1010.7
20260505051602 15 267 0.0 0.0 0.00 0.00 0.00 64 1010.6
20260505051100 15 267 0.0 0.0 0.00 0.00 0.00 63 1010.7
20260505050558 15 267 0.0 0.0 0.00 0.00 0.00 63 1010.6
20260505041526 16 267 0.0 0.0 0.00 0.00 0.00 57 1010.9
20260505041023 16 267 0.0 0.0 0.00 0.00 0.00 56 1011.0
20260505040520 16 267 0.0 0.0 0.00 0.00 0.00 56 1010.9
20260505040018 16 267 0.0 0.0 0.00 0.00 0.00 56 1010.9
20260505035513 16 267 0.0 0.0 0.00 0.00 0.00 56 1010.6
20260505035010 16 267 0.0 0.0 0.00 0.00 0.00 56 1010.6
20260505034507 16 267 0.0 0.0 0.00 0.00 0.00 56 1010.8
20260505034004 16 267 0.0 0.0 0.00 0.00 0.00 55 1010.6
20260505033501 17 267 0.0 0.0 0.00 0.00 0.00 55 1010.7
20260505032959 17 267 0.0 0.0 0.00 0.00 0.00 53 1010.5
20260505032456 17 267 0.0 0.0 0.00 0.00 0.00 53 1010.6
20260505031952 17 267 0.0 0.0 0.00 0.00 0.00 53 1010.7
20260505031449 17 267 0.0 0.0 0.00 0.00 0.00 53 1010.6
20260505030946 17 267 0.0 0.0 0.00 0.00 0.00 53 1010.8
20260505030442 17 267 0.0 0.0 0.00 0.00 0.00 52 1010.7
20260505025937 18 267 0.0 0.0 0.00 0.00 0.00 51 1010.6
20260505025435 18 267 0.0 0.0 0.00 0.00 0.00 50 1010.7
20260505024934 18 267 0.0 0.0 0.00 0.00 0.00 49 1010.5
20260505024431 18 267 0.0 0.0 0.00 0.00 0.00 48 1010.5
20260505023928 18 267 0.0 0.0 0.00 0.00 0.00 47 1010.5
20260505023425 19 267 0.0 0.0 0.00 0.00 0.00 47 1010.6
20260505022922 19 267 0.0 0.0 0.00 0.00 0.00 46 1010.6
20260505022420 19 267 0.0 1.6 0.00 0.00 0.00 46 1010.6
20260505021916 19 244 0.0 1.6 0.00 0.00 0.00 46 1010.5
20260505021413 19 259 1.6 1.6 0.00 0.00 0.00 46 1010.6
20260505020909 19 251 0.0 1.6 0.00 0.00 0.00 46 1010.6
20260505020404 19 250 0.0 0.0 0.00 0.00 0.00 45 1010.4
20260505015901 20 245 0.0 0.0 0.00 0.00 0.00 45 1010.6
20260505015358 20 257 0.0 0.0 0.00 0.00 0.00 44 1010.6
20260505014856 20 261 0.0 3.2 0.00 0.00 0.00 43 1010.4
20260505014352 20 287 0.0 1.6 0.00 0.00 0.00 43 1010.4
20260505013849 20 264 0.0 3.2 0.00 0.00 0.00 43 1010.2
20260505013346 20 248 0.0 0.0 0.00 0.00 0.00 43 1010.4
20260505012845 20 259 0.0 1.6 0.00 0.00 0.00 43 1010.2
20260505012343 20 275 1.6 1.6 0.00 0.00 0.00 43 1010.0
20260505011838 20 10 0.0 1.6 0.00 0.00 0.00 43 1009.9
20260505011335 20 19 0.0 0.0 0.00 0.00 0.00 42 1009.9
20260505010831 20 276 0.0 1.6 0.00 0.00 0.00 42 1010.0
20260505010327 20 291 0.0 1.6 0.00 0.00 0.00 42 1010.0
20260505005823 20 262 0.0 3.2 0.00 0.00 0.00 41 1010.0
20260505005320 20 246 0.0 3.2 0.00 0.00 0.00 41 1009.9
20260505004818 20 239 0.0 0.0 0.00 0.00 0.00 40 1009.7
20260505004314 21 201 0.0 0.0 0.00 0.00 0.00 40 1009.8
20260505003812 21 201 0.0 0.0 0.00 0.00 0.00 39 1009.7
20260505003309 21 201 0.0 0.0 0.00 0.00 0.00 38 1009.8
20260505002805 21 201 0.0 1.6 0.00 0.00 0.00 37 1009.7
20260505002304 22 203 0.0 1.6 0.00 0.00 0.00 37 1009.8
20260505001800 22 202 0.0 1.6 0.00 0.00 0.00 36 1009.9
20260505001257 22 211 0.0 1.6 0.00 0.00 0.00 35 1009.6
20260505000754 22 166 0.0 4.8 0.00 0.00 0.00 35 1009.7
20260505000252 22 258 1.6 4.8 0.00 0.00 0.00 35 1009.8
20260504235748 22 71 0.0 4.8 0.00 0.00 0.00 34 1009.5
20260504235244 22 246 1.6 9.7 0.00 0.00 0.00 34 1009.3
20260504234742 22 94 1.6 1.6 0.00 0.00 0.00 34 1009.6
20260504234239 23 317 0.0 3.2 0.00 0.00 0.00 34 1009.5
20260504233735 23 260 3.2 4.8 0.00 0.00 0.00 34 1009.6
20260504233231 23 213 1.6 9.7 0.00 0.00 0.00 33 1009.8
20260504232729 23 301 4.8 4.8 0.00 0.00 0.00 33 1009.4
20260504232225 23 248 0.0 4.8 0.00 0.00 0.00 33 1009.1
20260504231722 23 223 1.6 4.8 0.00 0.00 0.00 32 1009.4
20260504231219 23 245 1.6 4.8 0.00 0.00 0.00 32 1009.5
20260504230715 23 228 1.6 1.6 0.00 0.00 0.00 32 1009.4
20260504230214 23 268 1.6 9.7 0.00 0.00 0.00 31 1009.4
20260504225712 24 279 6.4 11.3 0.00 0.00 0.00 30 1009.4
20260504225207 25 240 1.6 9.7 0.00 0.00 0.00 30 1009.5
20260504224705 25 103 1.6 3.2 0.00 0.00 0.00 29 1009.2
20260504224202 25 162 3.2 9.7 0.00 0.00 0.00 30 1009.2
20260504223658 25 215 3.2 9.7 0.00 0.00 0.00 31 1009.5
20260504223154 25 251 1.6 4.8 0.00 0.00 0.00 31 1009.4
20260504222651 25 256 3.2 14.5 0.00 0.00 0.00 30 1009.3
20260504222148 25 92 1.6 3.2 0.00 0.00 0.00 30 1009.4
20260504221645 25 88 1.6 3.2 0.00 0.00 0.00 29 1009.4
20260504221142 25 102 3.2 6.4 0.00 0.00 0.00 29 1009.3
20260504220638 25 139 3.2 4.8 0.00 0.00 0.00 29 1009.4
20260504220137 25 176 1.6 6.4 0.00 0.00 0.00 29 1009.4
20260504215632 25 95 3.2 4.8 0.00 0.00 0.00 29 1009.5
20260504215130 25 160 1.6 1.6 0.00 0.00 0.00 29 1009.4
20260504214626 25 170 1.6 6.4 0.00 0.00 0.00 28 1009.5
20260504214122 25 209 8.0 14.5 0.00 0.00 0.00 29 1009.3
20260504213619 25 114 3.2 6.4 0.00 0.00 0.00 29 1009.6
20260504213116 25 323 1.6 4.8 0.00 0.00 0.00 30 1009.4
20260504212612 25 103 3.2 9.7 0.00 0.00 0.00 29 1009.6
20260504212109 26 221 11.3 17.7 0.00 0.00 0.00 28 1009.4
20260504211606 25 27 1.6 12.9 0.00 0.00 0.00 28 1009.4
20260504211103 25 219 3.2 4.8 0.00 0.00 0.00 28 1009.3
20260504210600 25 269 0.0 3.2 0.00 0.00 0.00 28 1009.3
20260504210056 24 273 3.2 6.4 0.00 0.00 0.00 28 1009.4
20260504205554 24 261 0.0 3.2 0.00 0.00 0.00 28 1009.6
20260504205052 25 172 3.2 6.4 0.00 0.00 0.00 27 1009.4
20260504204550 26 206 1.6 3.2 0.00 0.00 0.00 27 1009.5
20260504204049 26 341 3.2 4.8 0.00 0.00 0.00 25 1009.4
20260504203546 26 110 1.6 9.7 0.00 0.00 0.00 26 1009.4
20260504203044 26 102 3.2 3.2 0.00 0.00 0.00 26 1009.5
20260504202539 26 141 0.0 6.4 0.00 0.00 0.00 25 1009.4
20260504202036 27 241 3.2 3.2 0.00 0.00 0.00 25 1009.9
20260504201533 26 298 1.6 3.2 0.00 0.00 0.00 25 1009.6
20260504201031 26 308 3.2 6.4 0.00 0.00 0.00 25 1009.7
20260504200527 26 306 6.4 9.7 0.00 0.00 0.00 25 1009.8
20260504200024 27 196 1.6 6.4 0.00 0.00 0.00 25 1009.9
20260504195520 27 299 1.6 6.4 0.00 0.00 0.00 26 1009.9
20260504195017 26 266 1.6 3.2 0.00 0.00 0.00 27 1009.7
20260504194513 25 262 6.4 9.7 0.00 0.00 0.00 27 1009.7
20260504194008 26 206 3.2 6.4 0.00 0.00 0.00 26 1010.0
20260504193506 26 78 1.6 9.7 0.00 0.00 0.00 25 1010.1
20260504193005 26 23 3.2 9.7 0.00 0.00 0.00 24 1010.2
20260504192502 26 5 1.6 3.2 0.00 0.00 0.00 27 1010.3
20260504192000 26 274 4.8 6.4 0.00 0.00 0.00 25 1010.4
20260504191458 26 241 8.0 12.9 0.00 0.00 0.00 26 1010.6
20260504190953 25 87 3.2 11.3 0.00 0.00 0.00 29 1010.6
20260504190449 25 7 4.8 6.4 0.00 0.00 0.00 27 1010.7
20260504185946 26 272 0.0 3.2 0.00 0.00 0.00 26 1010.9
20260504185443 25 262 1.6 4.8 0.00 0.00 0.00 29 1010.9
20260504184939 25 130 3.2 3.2 0.00 0.00 0.00 27 1011.0
20260504184435 25 72 1.6 3.2 0.00 0.00 0.00 27 1011.3
20260504183931 25 248 0.0 11.3 0.00 0.00 0.00 27 1011.2
20260504183428 25 117 4.8 6.4 0.00 0.00 0.00 26 1011.3
20260504182926 25 189 1.6 6.4 0.00 0.00 0.00 28 1011.4
20260504182423 25 309 3.2 9.7 0.00 0.00 0.00 27 1011.6
20260504181920 25 269 3.2 4.8 0.00 0.00 0.00 28 1011.5
20260504181417 25 210 1.6 4.8 0.00 0.00 0.00 28 1011.5
20260504180916 25 287 3.2 6.4 0.00 0.00 0.00 27 1011.7
20260504180414 25 93 3.2 4.8 0.00 0.00 0.00 30 1011.7
20260504175912 24 123 1.6 4.8 0.00 0.00 0.00 29 1011.6
20260504175409 25 259 4.8 12.9 0.00 0.00 0.00 27 1011.8
20260504174907 23 109 3.2 4.8 0.00 0.00 0.00 29 1011.9
20260504174404 23 240 0.0 3.2 0.00 0.00 0.00 29 1012.1
20260504173901 24 170 0.0 3.2 0.00 0.00 0.00 29 1012.1
20260504173357 23 85 3.2 4.8 0.00 0.00 0.00 30 1012.0
20260504172855 23 164 1.6 3.2 0.00 0.00 0.00 29 1012.2
20260504172351 23 262 0.0 3.2 0.00 0.00 0.00 30 1012.5
20260504171847 23 152 1.6 3.2 0.00 0.00 0.00 30 1012.5
20260504171344 23 329 3.2 4.8 0.00 0.00 0.00 31 1012.6
20260504170842 23 221 1.6 9.7 0.00 0.00 0.00 31 1012.5
20260504170338 23 80 1.6 9.7 0.00 0.00 0.00 31 1012.6
20260504160256 21 264 3.2 6.4 0.00 0.00 0.00 33 1013.4
20260504150722 20 275 3.2 6.4 0.00 0.00 0.00 32 1013.7
20260504150219 20 219 1.6 4.8 0.00 0.00 0.00 31 1013.7
20260504141148 17 215 1.6 3.2 0.00 0.00 0.00 38 1013.9
20260504140645 17 292 1.6 4.8 0.00 0.00 0.00 39 1013.9
20260504140140 17 239 0.0 3.2 0.00 0.00 0.00 37 1014.0
20260504130609 13 290 1.6 3.2 0.00 0.00 0.00 47 1014.6
20260504130105 13 275 0.0 4.8 0.00 0.00 0.00 46 1014.8
20260504110456 9 261 0.0 3.2 0.00 0.00 0.00 63 1015.1